Satellite: NO-44
Catalog number: 26931
Epoch time:      11180.70338959
Element set:    0788
Inclination:      067.0533 deg
RA of node:       311.2760 deg
Eccentricity:    0.0006488
Arg of perigee:   255.8731 deg
Mean anomaly:     104.1604 deg
Mean motion:   14.29665893 rev/day
Decay rate:      -1.06e-06 rev/day^2
Epoch rev:           50871
Checksum:              316

Satellite: SO-50
Catalog number: 27607
Epoch time:      11180.83989068
Element set:    0503
Inclination:      064.5589 deg
RA of node:       289.2262 deg
Eccentricity:    0.0073788
Arg of perigee:   318.5972 deg
Mean anomaly:     040.9565 deg
Mean motion:   14.71764757 rev/day
Decay rate:        3.8e-07 rev/day^2
Epoch rev:           45795
Checksum:              363

Satellite: CO-55
Catalog number: 27844
Epoch time:      11180.57110169
Element set:    0142
Inclination:      098.7046 deg
RA of node:       189.0910 deg
Eccentricity:    0.0009859
Arg of perigee:   157.4224 deg
Mean anomaly:     202.7388 deg
Mean motion:   14.20820702 rev/day
Decay rate:        9.8e-07 rev/day^2
Epoch rev:           41467
Checksum:              307

Satellite: CO-57
Catalog number: 27848
Epoch time:      11180.58686348
Element set:    0092
Inclination:      098.7113 deg
RA of node:       188.2988 deg
Eccentricity:    0.0009825
Arg of perigee:   161.3682 deg
Mean anomaly:     198.7847 deg
Mean motion:   14.20599126 rev/day
Decay rate:        7.8e-07 rev/day^2
Epoch rev:           41462
Checksum:              361

Satellite: AO-51
Catalog number: 28375
Epoch time:      11180.47275479
Element set:    0008
Inclination:      098.0986 deg
RA of node:       158.2718 deg
Eccentricity:    0.0085036
Arg of perigee:   033.0985 deg
Mean anomaly:     327.5485 deg
Mean motion:   14.40764573 rev/day
Decay rate:        6.9e-07 rev/day^2
Epoch rev:           36783
Checksum:              345

Satellite: CP3
Catalog number: 31129
Epoch time:      11180.75590083
Element set:    0906
Inclination:      097.8980 deg
RA of node:       204.2433 deg
Eccentricity:    0.0103999
Arg of perigee:   141.3111 deg
Mean anomaly:     219.5574 deg
Mean motion:   14.52505160 rev/day
Decay rate:       1.27e-06 rev/day^2
Epoch rev:           22266
Checksum:              283

Satellite: CO-65
Catalog number: 32785
Epoch time:      11180.77133403
Element set:    0030
Inclination:      097.8487 deg
RA of node:       244.4246 deg
Eccentricity:    0.0015806
Arg of perigee:   132.2842 deg
Mean anomaly:     227.9675 deg
Mean motion:   14.82034030 rev/day
Decay rate:       4.26e-06 rev/day^2
Epoch rev:           17140
Checksum:              287

Satellite: PRISM
Catalog number: 33493
Epoch time:      11173.49496518
Element set:     701
Inclination:      098.1259 deg
RA of node:       302.1833 deg
Eccentricity:    0.0020266
Arg of perigee:   027.8899 deg
Mean anomaly:     332.3399 deg
Mean motion:   14.81742215 rev/day
Decay rate:       7.89e-06 rev/day^2
Epoch rev:           13030
Checksum:              309

Satellite: SOHLA-1
Catalog number: 33496
Epoch time:      11180.85023781
Element set:    0450
Inclination:      098.0818 deg
RA of node:       290.5547 deg
Eccentricity:    0.0007683
Arg of perigee:   083.8912 deg
Mean anomaly:     276.3161 deg
Mean motion:   14.69628887 rev/day
Decay rate:     -.00000000 rev/day^2
Epoch rev:           13034
Checksum:              301

Satellite: TISAT-1
Catalog number: 36799
Epoch time:      11173.47572888
Element set:     975
Inclination:      098.1013 deg
RA of node:       241.7788 deg
Eccentricity:    0.0013921
Arg of perigee:   259.1897 deg
Mean anomaly:     100.7748 deg
Mean motion:   14.80586897 rev/day
Decay rate:       5.61e-06 rev/day^2
Epoch rev:            5109
Checksum:              354

Satellite: STUDSAT
Catalog number: 36801
Epoch time:      11180.78181260
Element set:    0233
Inclination:      098.1052 deg
RA of node:       249.0326 deg
Eccentricity:    0.0012589
Arg of perigee:   222.8106 deg
Mean anomaly:     137.2123 deg
Mean motion:   14.80717874 rev/day
Decay rate:      1.737e-05 rev/day^2
Epoch rev:           05216
Checksum:              273

Satellite: RAX
Catalog number: 37223
Epoch time:      11152.36844328
Element set:    0173
Inclination:      071.9713 deg
RA of node:       073.6151 deg
Eccentricity:    0.0021634
Arg of perigee:   311.5989 deg
Mean anomaly:     048.3343 deg
Mean motion:   14.77415682 rev/day
Decay rate:       6.35e-06 rev/day^2
Epoch rev:           02854
Checksum:              291

Satellite: OOREOS
Catalog number: 37224
Epoch time:      11153.29456974
Element set:    0179
Inclination:      071.9726 deg
RA of node:       071.8135 deg
Eccentricity:    0.0020315
Arg of perigee:   307.7637 deg
Mean anomaly:     052.1684 deg
Mean motion:   14.77036357 rev/day
Decay rate:       4.92e-06 rev/day^2
Epoch rev:           02867
Checksum:              309

Satellite: FO-69
Catalog number: 37227
Epoch time:      11181.53936136
Element set:    0067
Inclination:      071.9704 deg
RA of node:       009.8266 deg
Eccentricity:    0.0018584
Arg of perigee:   257.3365 deg
Mean anomaly:     102.5733 deg
Mean motion:   14.76605354 rev/day
Decay rate:       2.44e-06 rev/day^2
Epoch rev:           01129
Checksum:              308

